This demonstration page uses our WeatherBlox Daily Observations layout. Learn more.

Left ArrowRight Arrow

53.62937, 11.41316

Hourly Observations for May 23, 2022

Temp ( °F °C ) Dew Point ( °F °C ) Humidity (%) Winds ( mph kmh ) Pressure ( in mb ) Visibility ( mi km ) Precip ( " mm )
12:20 am 00:20 Mostly Clear 54 12 48 9 82 82 ESE 3 6 29.91 1013 30 48 N/A
12:50 am 00:50 Mostly Clear 52 11 48 9 88 88 ESE 3 6 29.91 1013 30 48 N/A
1:20 am 01:20 Mostly Clear 50 10 46 8 88 88 ESE 2 4 29.91 1013 30 48 N/A
1:50 am 01:50 Mostly Clear 48 9 46 8 94 94 VRB 2 4 29.92 1013 30 48 N/A
2:20 am 02:20 Mostly Clear 48 9 46 8 94 94 ENE 5 7 29.89 1012 30 48 N/A
2:50 am 02:50 Mostly Clear 46 8 45 7 93 93 ENE 5 7 29.89 1012 30 48 N/A
3:20 am 03:20 Mostly Clear 46 8 45 7 93 93 VRB 2 4 29.89 1012 30 48 N/A
3:50 am 03:50 Mostly Clear 52 11 46 8 82 82 SE 5 7 29.89 1012 30 48 N/A
4:20 am 04:20 Mostly Clear 52 11 45 7 77 77 SE 6 9 29.86 1011 30 48 N/A
4:50 am 04:50 Mostly Clear 52 11 45 7 77 77 SE 7 11 29.86 1011 30 48 N/A
5:20 am 05:20 Mostly Sunny 52 11 46 8 82 82 SE 6 9 29.86 1011 30 48 N/A
5:50 am 05:50 Mostly Sunny 52 11 46 8 82 82 SE 7 11 29.86 1011 30 48 N/A
6:20 am 06:20 Mostly Sunny 52 11 46 8 82 82 SE 6 9 29.86 1011 7 11 N/A
6:50 am 06:50 Mostly Sunny 54 12 46 8 77 77 ESE 5 7 29.86 1011 7 11 N/A
7:20 am 07:20 Mostly Sunny 55 13 46 8 72 72 ESE 7 11 29.83 1010 7 11 N/A
7:50 am 07:50 Mostly Sunny 55 13 48 9 77 77 SE 7 11 29.83 1010 7 11 N/A
8:20 am 08:20 Mostly Sunny 57 14 48 9 72 72 SE 6 9 29.83 1010 7 11 N/A
8:50 am 08:50 Mostly Sunny 59 15 50 10 72 72 SE 8 13 29.80 1009 7 11 N/A
9:20 am 09:20 Mostly Sunny 63 17 50 10 64 64 ESE 8 13 29.80 1009 7 11 N/A
9:50 am 09:50 Mostly Sunny 64 18 50 10 60 60 SE 8 13 29.80 1009 7 11 N/A
10:20 am 10:20 Mostly Sunny 64 18 48 9 56 56 SE 10 17 29.77 1008 7 11 N/A
10:50 am 10:50 Mostly Sunny 66 19 48 9 52 52 SE 9 15 29.77 1008 7 11 N/A
11:20 am 11:20 Mostly Sunny 66 19 50 10 56 56 SE 13 20 29.77 1008 7 11 N/A
11:50 am 11:50 Mostly Sunny 66 19 48 9 52 52 SE 12 19 29.74 1007 7 11 N/A
12:20 pm 12:20 Mostly Sunny 70 21 48 9 46 46 SE 10 17 29.74 1007 30 48 N/A
12:50 pm 12:50 Mostly Sunny 70 21 46 8 43 43 SE 12 19 29.74 1007 7 11 N/A
1:20 pm 13:20 Mostly Sunny 70 21 48 9 46 46 SE 10 17 29.71 1006 7 11 N/A
1:50 pm 13:50 Mostly Sunny 72 22 48 9 44 44 SE 8 13 29.71 1006 7 11 N/A
2:20 pm 14:20 Mostly Sunny 72 22 46 8 41 41 SSE 10 17 29.68 1005 7 11 N/A
2:50 pm 14:50 Mostly Sunny 72 22 48 9 44 44 SSE 9 15 29.68 1005 7 11 N/A
3:20 pm 15:20 Mostly Sunny 72 22 48 9 44 44 SSE 10 17 29.68 1005 7 11 N/A
3:50 pm 15:50 Mostly Sunny 72 22 45 7 38 38 SE 13 20 29.65 1004 7 11 N/A
4:20 pm 16:20 Mostly Sunny 72 22 48 9 44 44 SE 10 17 29.65 1004 7 11 N/A
4:50 pm 16:50 Mostly Sunny 72 22 48 9 44 44 SE 12 19 29.62 1003 7 11 N/A
5:20 pm 17:20 Mostly Sunny 72 22 48 9 44 44 SE 12 19 29.62 1003 7 11 N/A
5:50 pm 17:50 Mostly Sunny 72 22 48 9 44 44 ESE 10 17 29.59 1002 7 11 N/A
6:20 pm 18:20 Mostly Sunny 72 22 48 9 44 44 SE 12 19 29.59 1002 7 11 N/A
6:50 pm 18:50 Mostly Sunny 72 22 48 9 44 44 ESE 10 17 29.56 1001 7 11 N/A
7:20 pm 19:20 Mostly Sunny 70 21 48 9 46 46 ESE 10 17 29.56 1001 7 11 N/A
7:50 pm 19:50 Mostly Sunny 70 21 48 9 46 46 ESE 9 15 29.53 1000 7 11 N/A
8:20 pm 20:20 Mostly Sunny 68 20 48 9 49 49 E 8 13 29.53 1000 7 11 N/A
8:50 pm 20:50 Mostly Sunny 68 20 48 9 49 49 ESE 7 11 29.53 1000 7 11 N/A
9:20 pm 21:20 Mostly Sunny 68 20 48 9 49 49 ESE 8 13 29.53 1000 30 48 N/A
9:50 pm 21:50 Partly Cloudy 66 19 48 9 52 52 ESE 8 13 29.53 1000 30 48 N/A
10:20 pm 22:20 Mostly Clear 66 19 46 8 49 49 ESE 9 15 29.50 999 30 48 N/A
10:50 pm 22:50 Mostly Cloudy 66 19 48 9 52 52 ESE 9 15 29.50 999 30 48 N/A
11:20 pm 23:20 Cloudy 66 19 48 9 52 52 ESE 9 15 29.47 998 30 48 N/A
11:50 pm 23:50 Cloudy 66 19 46 8 49 49 ESE 10 17 29.47 998 30 48 N/A

Powered by AerisWeather